Showing default

GNOMES-1, 46266

Orbit data source: Space-Track

GNOMES-1, 46266 is a payload satellite owned by PlanetiQ (US) in SSO that was launched on Sun, 30 Aug 2020 UTC via an FALCON 9 launch vehicle from the Air Force Eastern Test Range (AFETR). Payloads include a variety of satellites, spacecraft, and rockets equipped with specific instruments for various scientific and technological missions. These include communications satellites like Starlink; space stations such as the ISS; scientific satellites like the Hubble; Earth observation satellites from companies like Planet Labs, Umbra, and HawkEye 360; GPS; miniature CubeSats for education and research; and military/defense satellites.

Loading next visibility...
GNOMES-1 details
Identifier
46266, 2020-059B
Orbit
SSO
Last TLE update11 hours ago
Origin
Flag of USPlanetiQ (US)
ManufacturerBlue Canyon
MissionOperational Commercial Meteo Radio Occ.
Bus & MotorXSAT, Unknown motor
Mass~30 kg wet, ~30 kg dry
Launch date (UTC)
2020-08-30 (4 years ago)
Launch vehicle
FALCON 9
Launch site
Air Force Eastern Test Range (AFETR)
Object type
Payload
Rocket body
Debris
Shape & HBRBox + 2 Pan, Unknown HBR
Radar Cross Section0.162 m², Medium (>0.1 m² and < 1m²)

Expand to show TLE details & history

TLE from 11 hours ago
0 GNOMES-1
1 46266U 20059B   24361.51771207  .00006936  00000-0  62140-3 0  9996
2 46266  97.8354 199.9612 0004662 357.8176   2.3023 14.96115251235076
Epoch: 2024-12-26T12:25Z
Definitive object data (Epoch: 2024-12-26T12:25:30.322Z)
Latitude-0.00012°
Longitude-81.91109°
Altitude578.717 km
Speed7.573 km/s
True Right ascension13h 19m 50s
True Declination0° 00' 00"
Sunlit
Object was in daylight at TLE epoch
Visualization TLE readout
Latitude-21.05588°
Longitude95.50745°
Altitude589.9 km
Speed7.562 km/s
Apparent Right ascension04h 24m 52s
Apparent Declination-56° 16' 46"
Sunlit
Object is in daylight
Visualization observer readout
Local Sidereal Time22:20:21
Azimuth138.66° SSE
Elevation-32.828°
Doppler factor1
Orbital elements
Apogee altitude579.172 km
Perigee altitude572.688 km
Semi-major axis6,954.067 km
Eccentricity0.0004662
Inclination97.8354°
RAAN199.9612°
Arg. of periapsis357.8176°
True anomaly2.30445°
Mean anomaly2.3023°
Eccentric anomaly2.30337°
Mean motion3.7427 °/min
BSTAR0.0006214
Orbital period96.19 mins
Loading maneuver chart data...
Loading historical data...
Loading historical data...
Loading historical data...
Loading historical data...
Loading historical data...
Loading historical data...
Loading historical data...
Other satellites on launch #59 in the year 2020 (2020-08-30 UTC)

GNOMES-1 Visibility forecast

Observer location: undefined°, undefined

Span
Click to sort rows by Start time (UTC) header in descending order
Start Az.
Max El. time (UTC)
Max El. Az.
Max El.
End time (UTC)
End Az.
7 mins2024-12-27 01:50:06.652Z31.612° NE2024-12-27 01:53:06.652Z81.346° E30.349°2024-12-27 01:57:06.652Z165.038° S
4 mins2024-12-27 03:27:06.652Z318.766° NNW2024-12-27 03:28:06.652Z301.965° NW16.073°2024-12-27 03:31:06.652Z254.14° W
4 mins2024-12-27 12:40:06.652Z100.721° ESE2024-12-27 12:42:06.652Z58.14° ENE21.132°2024-12-27 12:44:06.652Z23.74° NE
5 mins2024-12-27 14:15:06.652Z226.627° WSW2024-12-27 14:17:06.652Z271.492° WNW23.378°2024-12-27 14:20:06.652Z320.432° NNW
|